Regional Weather Roundup
Issued by NWS

Home | Current Version | Previous Version | Graphics & Text | Print | Product List | Glossary On
Versions: 1 2 3 4 5 6 7 8 9 10 11 12 13 14 15 16 17 18 19 20 21 22 23 24 25 26 27 28 29 30 31 32 33 34 35 36 37 38 39 40 41 42 43 44 45 46 47 48 49 50
000
ASUS43 KBIS 111420
RWRND

NORTH DAKOTA REGIONAL WEATHER ROUNDUP
NATIONAL WEATHER SERVICE BISMARCK ND
900 AM CDT FRI JUL 11 2014

NOTE: "FAIR" INDICATES FEW OR NO CLOUDS BELOW 12,000 FEET WITH NO
SIGNIFICANT WEATHER AND/OR OBSTRUCTIONS TO VISIBILITY.


NDZ001>003-009>011-017-111500-
NORTHWEST NORTH DAKOTA

CITY           SKY/WX    TMP DP  RH WIND       PRES   REMARKS
WILLISTON      CLOUDY    66  58  75 NE9       30.03R
MINOT          PTSUNNY   67  59  75 NW10      29.95R
MINOT AFB      PTSUNNY   69  64  84 NW9       29.96R
$$

NDZ018>021-031>035-040>046-111500-
SOUTHWEST NORTH DAKOTA

CITY           SKY/WX    TMP DP  RH WIND       PRES   REMARKS
BISMARCK       MOSUNNY   72  66  81 N8        29.95R
DICKINSON      MOSUNNY   68  61  78 N14       30.02R
GARRISON         N/A     66  62  87 W5        29.98R
HETTINGER ARPT SUNNY     68  63  84 N20G28    30.00R
$$

NDZ004>008-012>016-024-026-027-054-111500-
NORTHEAST NORTH DAKOTA

CITY           SKY/WX    TMP DP  RH WIND       PRES   REMARKS
GRAND FORKS    MOSUNNY   70  68  93 W5        29.84R
GRND FRKS AFB  MOSUNNY   71  71 100 W6        29.85R
DEVILS LAKE    SUNNY     72  59  64 N13       29.90R
$$

NDZ022-023-025-028>030-036>039-047>053-111500-
SOUTHEAST NORTH DAKOTA

CITY           SKY/WX    TMP DP  RH WIND       PRES   REMARKS
FARGO          SUNNY     75  69  81 MISG      29.84R
JAMESTOWN      SUNNY     70  67  90 NW8       29.90R
$$




USA.gov is the U.S. government's official web portal to all federal, state and local government web resources and services.